RH
60 61 59 59 58 54 53 53 56 59 57 54 56 58 58 53 47 44 41 39 41 43 43 42 43 43 43 44 45 46 49 51 52 51 49 46 44 43 42 38 36 36 35 33 34 34 35 36 39 40 35 32 29 22 18 18 17 17 17 18 19 20 21 21 24 29 34 36 35 35 35 34 32 31 32 32 31 31 32 31 31 31 30 31 31 32
58 59 56 55 54 53 54 56 59 60 59 55 53 52 52 53 49 44 41 40 41 43 43 43 42 41 42 44 45 47 50 51 50 50 50 47 46 46 46 44 41 41 41 39 39 39 42 44 46 47 42 38 35 28 23 21 19 18 17 18 18 18 19 20 21 25 31 35 35 35 34 32 32 32 32 33 32 31 31 31 31 30 31 32 33 33
58 56 54 52 53 55 57 58 59 60 61 59 54 51 52 53 52 48 46 43 40 41 43 43 41 39 39 41 42 45 47 46 47 49 48 48 49 47 46 47 46 45 45 43 43 44 47 49 49 48 45 41 40 36 30 24 21 20 18 17 17 16 17 18 20 24 29 34 35 34 33 32 33 33 34 35 34 32 31 31 31 31 31 33 34 34
55 54 53 53 54 56 58 59 60 60 60 60 57 55 55 54 52 51 49 46 42 38 40 44 44 43 41 39 38 42 45 46 48 51 50 51 52 50 48 50 51 51 48 47 47 48 50 49 49 49 48 46 44 42 38 29 23 21 19 17 17 16 15 16 20 25 29 32 33 32 32 33 33 33 34 35 34 32 32 32 32 32 32 33 34 33
54 54 53 54 55 57 59 59 60 60 59 61 61 59 58 55 53 50 47 48 46 42 45 50 52 53 50 46 42 44 47 50 53 56 57 57 57 57 57 56 56 55 52 49 49 50 50 49 48 49 49 48 46 45 44 38 28 24 22 18 17 16 15 17 20 24 27 29 29 29 29 32 33 33 32 33 33 33 33 34 33 32 33 33 33 33
53 54 54 54 55 58 60 61 62 60 60 61 60 60 60 57 54 51 49 51 52 52 52 55 59 61 60 56 52 51 52 53 57 62 63 62 61 61 61 59 57 54 51 50 50 49 49 48 47 47 47 46 45 45 46 44 34 28 26 22 18 17 15 17 21 23 24 24 24 25 28 31 33 32 31 30 32 33 34 34 33 33 34 34 34 34
50 52 54 55 56 57 57 59 60 59 60 58 55 57 59 58 56 55 54 56 57 56 55 58 63 63 62 60 58 58 58 57 59 62 62 60 59 59 58 56 55 53 50 50 50 49 48 47 46 47 47 44 43 45 47 47 39 31 30 27 22 19 16 18 20 21 21 21 20 22 26 30 31 31 30 29 30 33 34 33 33 34 34 34 35 36
46 50 53 55 57 56 54 55 55 56 58 54 52 56 57 55 55 55 56 59 61 59 58 63 64 61 61 59 58 60 59 58 59 58 57 56 54 55 55 53 53 51 49 50 51 50 49 48 48 48 46 43 42 45 47 49 44 35 30 27 23 20 18 18 19 18 18 18 18 20 24 28 29 30 29 29 30 33 34 33 33 34 34 35 37 38
45 48 50 52 56 55 53 53 51 52 54 53 53 56 56 55 56 56 58 62 64 58 56 61 60 58 60 58 55 55 53 55 57 54 53 51 51 52 51 50 49 48 48 49 50 51 49 48 47 47 47 44 43 44 47 50 48 40 30 24 21 19 19 18 18 17 17 16 15 18 22 26 27 28 28 29 31 33 33 33 34 34 35 37 39 40
41 44 47 50 52 52 52 50 48 48 50 51 52 53 54 56 56 57 59 61 61 57 54 56 55 54 57 56 52 49 48 52 52 50 50 47 46 47 46 45 45 46 47 49 51 50 48 47 47 47 48 46 44 45 48 50 49 44 33 24 19 18 18 17 17 16 15 15 15 17 21 24 26 27 27 28 30 32 32 33 35 35 37 38 39 40
39 41 45 48 48 49 50 48 47 48 48 49 52 52 51 54 56 58 62 59 58 60 56 55 56 53 54 56 51 46 46 48 47 46 47 44 43 43 42 43 44 45 46 48 50 49 46 46 47 47 48 48 47 46 48 49 49 46 37 28 21 17 16 15 15 15 14 15 15 17 21 23 25 26 27 27 29 30 32 33 34 35 37 38 38 40
38 39 42 45 43 45 49 49 47 48 49 50 54 53 49 52 54 55 58 57 57 61 56 55 56 50 52 53 47 46 48 49 46 43 43 43 43 41 41 42 44 44 46 47 48 46 45 46 47 47 47 48 49 47 48 49 48 46 40 33 25 17 14 13 13 14 14 14 15 17 20 22 24 25 25 27 30 31 32 33 34 35 37 36 36 38
38 39 39 40 40 41 47 52 50 48 50 49 52 54 52 55 55 54 60 59 57 57 52 55 55 49 51 49 42 45 48 48 46 41 40 42 42 41 40 42 42 43 45 45 45 43 44 45 45 46 46 47 48 46 46 48 47 44 40 37 30 19 13 13 13 14 13 14 14 16 18 19 22 23 23 25 30 31 31 31 32 33 33 32 33 36
37 39 36 34 35 35 41 51 52 50 49 48 51 53 53 59 59 57 62 60 54 54 53 56 56 51 52 47 42 46 44 43 44 40 39 40 40 39 40 40 41 42 43 43 42 42 43 44 44 45 45 46 47 45 44 46 46 43 40 40 34 23 14 13 14 14 13 13 14 14 16 17 19 20 19 20 26 28 29 29 29 29 28 29 33 36
38 39 37 33 32 31 35 44 47 47 47 49 54 53 50 56 55 52 56 55 52 54 54 54 53 52 50 43 43 46 41 40 42 39 38 39 39 39 38 39 40 40 42 42 42 42 43 43 44 44 45 46 47 45 45 46 45 43 41 41 39 30 19 15 15 14 13 13 13 13 14 16 18 18 17 17 21 25 26 27 27 27 28 30 34 36
36 38 35 31 31 30 31 36 39 43 46 47 51 52 50 51 51 50 54 55 55 52 51 52 51 52 50 42 42 45 41 40 39 37 39 38 38 39 39 40 40 40 41 41 41 42 42 43 43 44 44 45 47 47 46 47 46 44 42 42 42 38 27 18 15 15 14 13 13 12 13 15 17 17 16 16 20 23 25 26 27 27 29 32 34 36
36 39 35 30 32 31 30 33 33 37 44 46 46 49 50 48 48 51 51 55 57 52 50 50 48 50 48 39 41 43 39 40 40 39 38 37 38 38 38 40 40 40 40 39 40 41 42 43 43 44 44 45 47 48 47 48 47 45 44 43 45 43 35 24 17 15 14 13 13 13 13 14 16 17 16 16 20 23 25 27 28 28 30 32 34 37
38 41 36 31 32 31 30 31 31 33 39 43 44 45 45 43 46 49 50 55 57 52 52 51 45 46 45 39 39 38 35 38 42 41 39 38 38 37 37 39 39 40 39 39 39 40 41 42 43 44 44 45 47 48 48 48 48 48 46 44 46 46 43 33 23 17 14 13 13 13 13 14 16 17 15 15 18 21 24 26 27 29 30 32 34 36
36 38 37 33 30 31 30 30 34 34 34 39 41 39 39 41 43 44 47 52 52 49 51 51 47 45 42 42 40 34 33 36 38 41 41 39 39 37 37 38 38 39 38 38 39 40 41 42 43 45 45 45 46 47 48 48 49 50 47 46 46 47 47 41 31 24 19 15 14 13 14 14 16 18 16 14 16 18 21 24 26 28 29 30 32 35
35 36 37 36 32 32 32 32 37 36 32 34 36 34 37 42 43 41 41 44 44 46 49 49 48 45 40 41 39 33 34 35 34 38 41 39 38 37 37 38 38 39 39 38 39 39 41 42 44 45 45 45 45 45 47 47 48 49 48 47 46 47 47 44 37 31 27 22 18 15 14 15 17 19 17 14 15 17 19 22 25 27 28 29 30 32
35 32 36 39 36 33 33 32 33 34 32 34 35 34 37 39 38 37 37 37 39 46 51 48 47 44 38 36 35 32 33 35 33 36 38 38 37 37 37 38 39 40 40 39 39 39 40 41 43 44 44 44 45 44 46 47 47 48 49 48 47 46 46 44 39 35 32 30 25 20 17 16 17 19 19 17 16 17 18 20 24 26 27 28 29 30
32 32 37 40 34 32 35 33 31 31 31 34 36 36 37 37 36 38 39 37 36 41 47 45 42 42 38 35 34 32 33 34 33 34 36 35 34 35 37 37 37 39 39 39 39 39 39 40 41 42 41 42 43 44 45 46 48 48 50 50 49 47 47 45 41 37 34 34 31 26 22 18 18 19 21 20 18 18 18 18 21 24 27 29 29 29
35 35 35 35 34 35 37 35 33 32 31 32 35 38 38 38 39 41 42 39 36 36 41 42 39 40 39 37 37 36 34 34 32 32 34 32 32 34 36 36 37 37 37 38 39 38 38 39 40 40 39 40 42 43 44 46 47 48 50 51 51 49 48 46 43 38 35 35 34 32 28 24 21 21 23 23 21 20 19 19 20 23 26 29 28 30
36 34 30 33 39 40 38 38 36 33 31 31 32 35 37 38 39 42 45 45 41 38 38 38 39 41 41 42 41 39 37 34 31 31 31 30 31 33 35 37 37 37 37 37 37 38 37 38 40 39 39 39 41 42 44 44 46 48 50 51 52 51 49 47 44 39 36 35 35 35 33 30 27 25 25 25 24 23 22 21 22 24 28 30 29 30
32 32 33 34 37 37 36 38 39 34 31 31 32 32 34 36 38 39 42 44 41 40 39 39 41 42 41 42 43 41 40 37 34 32 31 30 30 32 34 36 37 36 37 37 38 39 39 39 40 39 39 40 41 43 45 45 46 47 49 51 51 51 50 47 44 41 38 37 37 36 36 35 33 31 29 27 25 24 23 23 23 25 28 31 32 32
33 37 41 38 36 37 36 39 41 39 34 33 33 33 32 34 36 36 38 38 37 39 41 40 42 42 40 40 41 41 42 39 36 35 33 32 32 32 34 35 36 36 37 38 40 41 39 38 40 40 39 40 41 43 46 46 47 48 49 50 50 51 50 48 46 44 42 40 39 38 38 38 38 37 36 34 32 30 28 26 25 26 27 29 32 33
39 41 44 41 35 35 37 40 42 40 37 35 34 33 33 35 37 37 38 37 37 39 41 42 41 39 39 39 39 41 42 40 39 37 34 33 33 34 35 36 36 37 37 38 40 41 39 38 39 40 40 41 42 44 46 47 49 50 51 51 51 51 51 50 48 46 44 43 43 42 41 41 41 41 41 42 43 41 37 32 30 30 32 33 33 35
40 36 39 40 35 34 39 41 38 36 36 37 36 35 36 38 38 37 37 38 38 36 39 45 43 37 38 40 39 41 42 41 41 38 34 34 34 35 35 36 36 36 36 37 39 40 40 39 39 42 43 44 46 48 49 50 50 51 52 53 54 54 53 52 50 48 47 46 45 45 44 44 45 44 44 47 50 50 48 42 36 34 36 38 38 38
41 35 36 39 37 37 40 40 38 36 35 36 37 38 39 40 39 37 40 42 38 32 35 43 43 38 39 41 41 42 43 43 43 40 37 37 38 38 37 36 36 37 37 38 39 41 42 41 41 43 45 48 50 51 51 51 52 52 52 53 54 54 54 53 51 50 49 48 47 48 47 47 48 48 47 50 53 57 60 56 48 42 42 43 42 42
38 36 39 41 39 38 41 42 40 36 34 34 37 39 41 43 41 38 42 44 39 34 36 40 41 40 39 41 42 44 44 44 44 44 42 42 44 44 41 38 39 40 40 40 40 41 43 44 44 44 46 48 51 52 52 52 52 52 52 53 53 53 53 54 53 53 53 52 52 52 52 53 53 51 47 48 52 58 62 59 54 53 53 51 46 44
36 37 44 46 41 39 42 44 42 39 36 33 34 38 42 43 41 39 42 42 38 37 39 39 39 39 40 43 44 43 44 46 46 46 46 47 48 48 45 42 42 43 44 43 42 43 44 45 45 45 46 48 49 52 52 51 52 52 51 51 51 52 53 54 55 55 55 55 55 56 56 57 58 55 49 46 48 52 52 50 49 52 54 52 49 48
40 43 45 45 42 41 43 44 44 40 37 34 32 35 39 41 41 40 41 40 37 38 40 38 37 37 40 44 46 45 46 47 48 49 49 50 51 50 49 47 47 47 48 47 47 47 47 47 46 46 49 50 50 50 50 51 51 50 50 49 50 51 53 55 56 56 57 58 58 58 59 59 60 60 56 52 49 49 48 46 46 48 49 50 50 51
44 44 44 44 42 42 45 49 47 41 37 36 37 36 36 39 42 42 43 44 41 39 39 36 35 38 42 44 45 48 50 50 50 51 51 51 53 52 52 52 51 50 50 50 51 51 51 51 49 49 52 55 54 53 51 50 50 50 50 51 51 52 53 54 56 57 58 60 61 61 62 61 61 62 61 58 54 51 50 48 48 48 49 50 50 51
45 43 45 48 43 40 48 52 46 40 40 40 41 39 35 36 40 42 43 46 45 42 41 39 38 42 47 46 46 49 52 51 50 51 52 52 53 53 54 54 53 52 53 54 55 55 55 56 55 55 57 57 57 55 53 52 53 53 53 52 52 52 53 54 56 57 58 60 61 63 63 63 62 62 62 62 59 55 53 51 50 51 51 53 54 54
47 45 49 54 48 45 52 52 45 44 47 45 45 45 41 39 42 45 46 47 47 46 45 43 42 45 48 47 47 50 52 51 51 52 53 53 52 53 55 55 55 56 58 59 60 59 59 59 59 59 58 57 56 56 55 55 55 55 55 55 55 55 56 57 58 59 60 61 62 63 63 63 63 62 62 63 63 61 58 55 54 53 54 57 59 57
48 48 50 52 48 47 50 50 49 50 49 47 47 48 48 47 46 45 43 44 47 47 47 46 47 49 50 49 49 52 53 53 54 54 54 54 54 54 56 57 58 59 61 63 65 64 63 62 62 61 61 59 58 58 58 58 59 59 59 60 61 62 62 62 63 63 63 63 64 64 64 64 64 64 65 64 64 64 63 61 59 57 56 58 60 60
47 48 49 47 48 50 50 50 52 49 45 45 48 50 50 49 48 47 45 44 48 51 52 52 53 54 53 53 53 53 54 55 56 57 57 56 56 56 58 60 60 62 63 65 66 66 65 65 64 64 64 63 62 62 62 62 63 65 65 65 66 66 67 67 67 66 65 65 66 67 67 68 68 67 67 67 67 67 68 68 66 61 59 59 61 62
48 47 47 46 49 54 53 50 50 47 45 46 48 49 49 47 50 52 48 47 51 54 54 54 55 56 56 55 54 53 54 56 59 60 59 58 59 60 61 62 63 65 67 68 69 69 68 67 65 66 66 66 65 66 66 66 67 68 68 69 69 69 70 70 70 69 69 69 70 71 72 72 72 71 70 70 71 71 71 71 69 65 62 60 61 62
53 52 52 51 50 52 53 51 51 49 48 47 47 48 48 47 48 48 48 49 52 55 54 54 55 56 56 54 53 52 53 57 62 63 61 60 63 64 64 64 65 67 70 71 72 71 71 71 70 68 68 67 67 67 68 69 69 70 70 71 71 71 72 73 72 73 73 74 75 75 75 75 75 75 73 73 74 74 72 70 68 65 63 62 62 61
56 58 58 54 51 51 51 51 50 48 47 46 47 49 50 49 47 47 51 54 54 54 54 53 53 55 54 52 53 54 55 58 61 63 63 63 66 67 66 67 68 69 71 73 73 72 72 73 72 69 66 64 63 64 66 69 70 71 71 71 70 71 72 74 75 76 77 78 78 78 78 78 78 77 75 73 73 74 73 70 67 65 64 64 63 62
58 62 62 59 56 55 52 49 49 48 46 47 49 49 48 48 47 50 55 56 54 55 56 53 54 56 56 55 55 56 58 59 60 63 65 66 67 68 68 69 69 69 71 71 71 70 70 69 69 68 65 64 64 64 65 66 68 69 69 69 69 69 70 72 74 75 77 78 79 79 79 79 79 79 78 76 74 74 74 72 69 67 66 66 66 65
60 62 64 61 59 58 56 54 53 49 44 46 50 49 46 47 49 52 54 54 54 56 57 56 56 58 58 57 58 59 62 63 63 66 68 68 69 70 69 70 69 69 70 69 67 67 66 67 67 67 66 65 66 66 65 66 67 68 69 68 68 68 69 70 71 72 74 75 76 77 78 78 79 79 79 77 75 74 74 72 70 68 68 70 71 70
57 59 62 62 59 59 59 58 54 48 43 45 49 49 47 47 49 50 53 56 56 55 57 59 60 60 60 60 62 64 66 68 69 70 71 70 70 70 69 69 68 68 68 68 67 66 66 65 65 64 64 65 65 66 66 66 67 68 67 67 67 68 69 69 70 71 72 73 73 74 75 76 77 78 78 76 74 73 72 72 71 70 72 75 78 78
56 58 62 62 59 58 57 55 55 54 51 48 48 50 49 47 46 48 51 56 57 56 58 60 62 63 63 63 65 68 70 71 73 72 70 70 69 68 68 68 67 67 67 67 67 66 65 64 64 64 65 66 66 67 67 67 67 67 66 65 66 66 67 67 68 69 70 71 72 72 72 73 74 75 76 76 74 72 71 71 70 69 72 77 82 83
58 59 61 60 60 61 59 57 58 59 57 53 52 52 50 47 48 50 50 53 56 57 59 61 63 65 65 66 68 71 72 72 72 70 68 68 68 68 68 67 68 68 68 66 65 65 64 65 65 65 66 66 66 65 65 65 65 65 64 65 65 65 65 65 65 66 68 69 69 69 70 71 71 71 70 70 70 71 71 70 68 67 68 72 78 82
60 61 62 62 63 63 61 61 62 62 60 57 56 56 54 51 53 54 52 53 57 58 59 62 65 67 67 68 70 71 70 69 69 68 67 67 67 68 69 69 70 69 66 63 63 64 65 66 66 65 64 63 61 60 59 59 60 61 61 62 62 61 61 61 61 62 63 64 65 64 64 64 64 64 63 63 64 65 67 67 68 67 67 70 74 78
62 63 65 66 65 64 63 65 65 64 63 62 60 59 59 57 57 56 55 56 57 58 61 64 67 68 68 68 69 68 68 68 67 67 68 68 70 71 71 70 69 65 62 60 60 61 63 64 63 60 58 55 54 53 52 51 52 54 55 56 56 55 55 56 57 57 58 58 59 58 58 58 57 57 58 59 59 61 62 63 64 65 66 68 70 72
61 63 67 69 70 68 66 67 66 64 64 64 63 63 62 60 59 58 57 58 58 60 63 66 68 68 68 68 69 70 70 69 69 69 69 69 70 70 68 67 65 63 61 60 59 60 61 59 56 53 51 50 49 48 47 47 47 49 51 52 53 53 51 50 50 51 52 52 52 53 53 53 53 53 53 53 54 55 56 57 58 60 63 65 67 69
63 64 67 70 72 71 69 67 66 65 65 64 64 63 62 61 62 61 59 60 62 64 65 66 68 67 66 68 70 71 72 71 70 68 66 65 66 66 65 65 65 65 65 64 63 62 59 56 52 50 49 49 47 46 46 46 46 46 48 50 51 50 48 46 44 45 47 47 48 49 50 51 51 51 50 50 49 49 49 49 49 51 55 58 61 64
69 70 71 73 73 73 71 69 67 67 67 65 64 64 63 63 63 63 62 64 65 67 68 67 67 67 67 68 70 71 71 69 67 65 64 64 64 64 64 65 66 67 67 66 63 59 55 52 51 51 50 50 49 47 46 45 44 44 45 46 47 47 47 45 43 42 43 45 46 47 48 50 51 51 51 50 49 49 48 48 47 48 50 52 55 57
71 70 72 74 74 73 71 68 65 66 66 65 64 65 64 64 64 64 64 65 67 68 69 69 70 70 71 70 70 69 67 66 66 66 65 64 63 63 64 65 66 65 63 61 57 54 52 52 52 51 52 53 52 50 48 45 44 42 41 41 42 43 45 46 45 42 42 43 44 45 46 48 49 50 51 51 50 50 49 48 47 48 49 50 51 53